WXM80 ListenWXM80 Stop

You find our weather info also at:

UK Metoffice

WeatherCloud

Weather Underground

Northeastern Weather Network

AWEKAS

Citizen Weather Observer Program (CWOP)

HAMweather, WeatherForYou, PWS Weather


Weather Underground History page Text

Daily Summary for November 29, 2016 Units:  English    Metric   Both
« Previous Day
Next Day »
Daily Weekly Monthly Yearly Custom
  High: Low: Average:
Temperature: 59.7 °F 40.5 °F 54.5 °F
Dew Point: 58.8 °F 37.8 °F 52.8 °F
Humidity: 97 % 87 % 94 %
Wind Speed: 15.1 mph 0.0 mph 4 mph
Wind Gust: 22.0 mph - -
Wind:- - South
Pressure: 30.13 in 29.80 in -
Precipitation: 1.53 in    
Historical Graphs
 
 
Tabular Data for November 29, 2016
Time Temperature Dew Point Pressure Wind Wind Speed Wind Gust Humidity Rainfall Rate (Hourly)
00:01 40.5 °F 37.8 °F 30.13 in Calm     90 % 0.00 in
00:06 40.7 °F 38.3 °F 30.13 in Calm     91 % 0.00 in
00:11 40.8 °F 38.4 °F 30.13 in Calm     91 % 0.00 in
00:16 41.0 °F 38.6 °F 30.13 in Calm   1.0 mph 91 % 0.00 in
00:21 41.1 °F 38.7 °F 30.13 in Calm     91 % 0.00 in
00:27 41.3 °F 39.2 °F 30.12 in SW 0.1 mph   92 % 0.00 in
00:32 41.5 °F 39.3 °F 30.12 in Calm     92 % 0.00 in
00:37 41.7 °F 39.5 °F 30.11 in Calm   1.2 mph 92 % 0.00 in
00:42 41.9 °F 39.7 °F 30.11 in Calm     92 % 0.00 in
00:47 42.0 °F 39.8 °F 30.10 in Calm     92 % 0.00 in
00:52 42.2 °F 39.8 °F 30.11 in Calm     91 % 0.00 in
00:57 42.3 °F 39.9 °F 30.12 in Calm     91 % 0.00 in
01:02 42.4 °F 40.0 °F 30.11 in Calm     91 % 0.00 in
01:07 42.5 °F 40.1 °F 30.11 in Calm     91 % 0.00 in
01:12 42.5 °F 40.1 °F 30.11 in Calm     91 % 0.00 in
01:18 42.7 °F 40.3 °F 30.11 in Calm     91 % 0.00 in
01:23 42.9 °F 40.5 °F 30.11 in Calm     91 % 0.00 in
01:28 43.0 °F 40.6 °F 30.11 in Calm     91 % 0.00 in
01:33 43.1 °F 40.7 °F 30.11 in Calm     91 % 0.00 in
01:38 43.2 °F 40.8 °F 30.11 in Calm     91 % 0.00 in
01:43 43.3 °F 40.8 °F 30.11 in Calm     91 % 0.00 in
01:48 43.3 °F 40.8 °F 30.11 in Calm     91 % 0.00 in
01:53 43.4 °F 40.9 °F 30.11 in Calm     91 % 0.00 in
01:58 43.7 °F 41.2 °F 30.11 in Calm     91 % 0.00 in
02:03 43.8 °F 41.3 °F 30.11 in Calm     91 % 0.00 in
02:08 43.8 °F 41.3 °F 30.10 in Calm     91 % 0.00 in
02:14 43.8 °F 41.3 °F 30.09 in Calm     91 % 0.00 in
02:24 43.7 °F 41.0 °F 30.12 in SW 0.5 mph 2.3 mph 90 % 0.00 in
02:29 43.8 °F 41.1 °F 30.12 in Calm   1.2 mph 90 % 0.00 in
02:34 43.9 °F 41.4 °F 30.11 in Calm     91 % 0.00 in
02:39 44.0 °F 41.5 °F 30.11 in Calm     91 % 0.00 in
02:44 44.0 °F 41.5 °F 30.11 in Calm     91 % 0.00 in
02:49 44.0 °F 41.5 °F 30.11 in Calm     91 % 0.00 in
02:54 44.1 °F 41.6 °F 30.11 in Calm     91 % 0.00 in
02:59 44.2 °F 41.5 °F 30.11 in Calm     90 % 0.00 in
03:04 44.2 °F 41.7 °F 30.11 in Calm     91 % 0.00 in
03:10 44.2 °F 41.7 °F 30.11 in Calm     91 % 0.00 in
03:15 44.2 °F 41.7 °F 30.10 in Calm     91 % 0.00 in
03:20 44.2 °F 41.5 °F 30.10 in Calm     90 % 0.00 in
03:25 44.2 °F 41.7 °F 30.10 in Calm     91 % 0.00 in
03:30 44.2 °F 41.7 °F 30.10 in Calm     91 % 0.00 in
03:35 44.2 °F 41.7 °F 30.09 in Calm     91 % 0.00 in
03:40 44.2 °F 41.7 °F 30.09 in Calm     91 % 0.00 in
03:45 44.2 °F 41.8 °F 30.10 in Calm     91 % 0.00 in
03:50 44.2 °F 41.8 °F 30.10 in Calm     91 % 0.00 in
03:55 44.2 °F 41.7 °F 30.10 in Calm     91 % 0.00 in
04:00 44.3 °F 41.8 °F 30.10 in Calm     91 % 0.00 in
04:05 44.3 °F 42.1 °F 30.10 in Calm   1.0 mph 92 % 0.00 in
04:10 44.4 °F 42.2 °F 30.09 in Calm   1.0 mph 92 % 0.00 in
04:15 44.3 °F 42.1 °F 30.08 in SSW 1.0 mph 3.0 mph 92 % 0.00 in
04:20 44.4 °F 42.2 °F 30.09 in Calm     92 % 0.00 in
04:25 44.5 °F 42.3 °F 30.09 in Calm     92 % 0.00 in
04:30 44.6 °F 42.4 °F 30.09 in Calm   1.0 mph 92 % 0.00 in
04:35 44.7 °F 42.8 °F 30.09 in Calm   5.0 mph 93 % 0.00 in
04:40 44.9 °F 43.0 °F 30.08 in SE 1.0 mph 4.0 mph 93 % 0.00 in
04:45 45.2 °F 43.6 °F 30.08 in Calm   3.0 mph 94 % 0.00 in
04:50 45.5 °F 43.9 °F 30.07 in SE 1.0 mph 3.0 mph 94 % 0.00 in
04:55 45.8 °F 44.4 °F 30.07 in SE 1.0 mph 3.0 mph 95 % 0.00 in
05:00 46.5 °F 45.1 °F 30.07 in SSE 1.8 mph 4.0 mph 95 % 0.00 in
05:05 47.2 °F 46.2 °F 30.07 in SSE 1.0 mph 6.0 mph 96 % 0.00 in
05:10 48.2 °F 47.1 °F 30.06 in SSE 3.0 mph 8.0 mph 96 % 0.00 in
05:15 49.1 °F 48.0 °F 30.05 in SE 3.0 mph 8.0 mph 96 % 0.00 in
05:20 49.7 °F 48.3 °F 30.05 in SSE 1.1 mph 4.6 mph 95 % 0.00 in
05:25 50.1 °F 48.7 °F 30.06 in SSE 2.0 mph 5.0 mph 95 % 0.00 in
05:30 50.5 °F 48.8 °F 30.06 in SSE 3.0 mph 9.0 mph 94 % 0.00 in
05:35 50.9 °F 49.0 °F 30.05 in SSE 3.0 mph 9.0 mph 93 % 0.00 in
05:40 51.3 °F 49.0 °F 30.05 in SSE 5.0 mph 8.0 mph 92 % 0.00 in
05:45 51.5 °F 49.0 °F 30.06 in SSE 5.0 mph 7.0 mph 91 % 0.00 in
05:50 51.8 °F 49.3 °F 30.07 in SSE 5.0 mph 9.0 mph 91 % 0.00 in
05:55 52.0 °F 49.2 °F 30.07 in SSE 2.0 mph 9.0 mph 90 % 0.00 in
06:00 52.2 °F 49.4 °F 30.07 in SSE 4.6 mph 8.0 mph 90 % 0.00 in
06:05 52.3 °F 49.5 °F 30.06 in SSE 5.0 mph 12.0 mph 90 % 0.00 in
06:10 52.5 °F 49.7 °F 30.06 in SSE 4.0 mph 7.0 mph 90 % 0.00 in
06:15 52.6 °F 49.4 °F 30.05 in SSE 5.4 mph 9.2 mph 89 % 0.00 in
06:20 52.7 °F 49.8 °F 30.05 in SE 7.8 mph 11.5 mph 90 % 0.00 in
06:25 52.8 °F 49.6 °F 30.05 in SSE 4.4 mph 8.1 mph 89 % 0.00 in
06:30 53.0 °F 49.8 °F 30.06 in SSE 6.1 mph 8.0 mph 89 % 0.00 in
06:35 53.1 °F 49.9 °F 30.06 in SSE 6.2 mph 10.4 mph 89 % 0.00 in
06:40 53.2 °F 50.0 °F 30.07 in SSE 6.3 mph 10.4 mph 89 % 0.00 in
06:46 53.2 °F 50.0 °F 30.06 in SSE 7.5 mph 9.0 mph 89 % 0.00 in
06:51 53.3 °F 50.1 °F 30.05 in SE 4.9 mph 10.4 mph 89 % 0.00 in
06:56 53.4 °F 50.2 °F 30.05 in SSE 6.6 mph 9.2 mph 89 % 0.00 in
07:01 53.5 °F 50.3 °F 30.05 in SSE 6.2 mph 11.5 mph 89 % 0.00 in
07:06 53.6 °F 50.4 °F 30.05 in SSE 1.9 mph 9.2 mph 89 % 0.00 in
07:11 53.7 °F 50.5 °F 30.05 in SE 3.6 mph 6.0 mph 89 % 0.00 in
07:16 53.7 °F 50.8 °F 30.05 in SSE 3.3 mph 8.1 mph 90 % 0.00 in
07:21 53.9 °F 51.0 °F 30.05 in SE 6.2 mph 9.2 mph 90 % 0.00 in
07:26 54.1 °F 51.2 °F 30.05 in SSE 4.4 mph 5.8 mph 90 % 0.00 in
07:31 54.2 °F 51.3 °F 30.04 in SSE 3.3 mph 4.6 mph 90 % 0.00 in
07:37 54.4 °F 51.5 °F 30.04 in SSE 5.7 mph 11.5 mph 90 % 0.00 in
07:42 54.6 °F 51.7 °F 30.03 in SSE 5.8 mph 9.0 mph 90 % 0.00 in
07:47 54.8 °F 51.9 °F 30.04 in SSE 6.0 mph 11.0 mph 90 % 0.00 in
07:52 55.1 °F 52.2 °F 30.04 in SE 4.9 mph 5.8 mph 90 % 0.00 in
07:57 55.3 °F 52.1 °F 30.04 in SE 3.9 mph 12.7 mph 89 % 0.00 in
08:02 55.5 °F 52.3 °F 30.04 in SSE 8.1 mph 12.7 mph 89 % 0.00 in
08:07 55.9 °F 52.7 °F 30.04 in SSE 6.5 mph 11.5 mph 89 % 0.00 in
08:12 56.2 °F 52.7 °F 30.03 in South 4.4 mph 9.2 mph 88 % 0.00 in
08:17 56.3 °F 52.8 °F 30.03 in South 6.6 mph 15.0 mph 88 % 0.00 in
08:22 56.5 °F 53.0 °F 30.03 in SE 6.6 mph 12.7 mph 88 % 0.00 in
08:28 56.7 °F 52.9 °F 30.03 in South 5.5 mph 11.5 mph 87 % 0.00 in
08:33 56.8 °F 53.0 °F 30.03 in SSE 3.1 mph 12.7 mph 87 % 0.00 in
08:38 57.0 °F 53.2 °F 30.02 in SSE 5.8 mph 8.1 mph 87 % 0.00 in
08:43 57.1 °F 53.3 °F 30.02 in SE 9.6 mph 16.1 mph 87 % 0.00 in
08:48 57.1 °F 53.3 °F 30.02 in SSW 4.2 mph 8.1 mph 87 % 0.00 in
08:53 57.2 °F 53.4 °F 30.02 in SE 6.8 mph 12.0 mph 87 % 0.00 in
08:58 57.4 °F 53.6 °F 30.02 in SE 3.0 mph 15.0 mph 87 % 0.00 in
09:03 57.6 °F 53.8 °F 30.02 in SE 2.9 mph 8.1 mph 87 % 0.00 in
09:09 57.7 °F 53.9 °F 30.02 in SE 7.4 mph 11.0 mph 87 % 0.00 in
09:14 57.7 °F 53.9 °F 30.03 in SSE 3.2 mph 6.9 mph 87 % 0.00 in
09:19 57.7 °F 54.2 °F 30.03 in SSE 2.5 mph 12.7 mph 88 % 0.00 in
09:24 57.7 °F 54.2 °F 30.03 in SSE 5.2 mph 8.1 mph 88 % 0.00 in
09:29 57.6 °F 54.4 °F 30.03 in SSE 1.6 mph 3.5 mph 89 % 0.00 in
09:34 57.5 °F 54.3 °F 30.03 in South 3.4 mph 5.8 mph 89 % 0.00 in
09:39 57.4 °F 54.5 °F 30.03 in SE 4.6 mph 10.4 mph 90 % 0.00 in
09:44 57.4 °F 54.8 °F 30.03 in South 4.6 mph 8.1 mph 91 % 0.00 in
09:49 57.4 °F 54.8 °F 30.03 in SSE 3.2 mph 4.6 mph 91 % 0.00 in
09:54 57.3 °F 54.7 °F 30.03 in SE 5.7 mph 11.5 mph 91 % 0.01 in
10:00 57.3 °F 55.0 °F 30.02 in SSW 3.2 mph 11.5 mph 92 % 0.01 in
10:05 57.3 °F 55.0 °F 30.03 in South 2.3 mph 5.8 mph 92 % 0.01 in
10:10 57.3 °F 55.0 °F 30.02 in SSE 3.0 mph 10.0 mph 92 % 0.00 in
10:15 57.3 °F 55.0 °F 30.03 in SSE 5.0 mph 10.0 mph 92 % 0.00 in
10:20 57.3 °F 55.0 °F 30.02 in SSE 5.0 mph 9.0 mph 92 % 0.01 in
10:25 57.2 °F 55.2 °F 30.02 in SSE 5.0 mph 14.0 mph 93 % 0.00 in
10:30 57.2 °F 55.2 °F 30.02 in SSE 6.0 mph 13.0 mph 93 % 0.00 in
10:35 57.2 °F 55.2 °F 30.01 in SSE 6.0 mph 17.0 mph 93 % 0.00 in
10:40 57.2 °F 55.2 °F 30.01 in SSW 6.4 mph 8.1 mph 93 % 0.03 in
10:45 57.1 °F 55.1 °F 30.01 in SSE 3.0 mph 10.0 mph 93 % 0.00 in
10:50 57.2 °F 55.5 °F 30.01 in SSE 5.0 mph 8.0 mph 94 % 0.00 in
10:55 57.2 °F 55.5 °F 30.00 in SSE 8.0 mph 16.0 mph 94 % 0.00 in
11:00 57.2 °F 55.5 °F 30.00 in SSE 3.0 mph 8.1 mph 94 % 0.04 in
11:05 57.2 °F 55.5 °F 30.00 in South 4.3 mph 11.5 mph 94 % 0.05 in
11:10 57.2 °F 55.5 °F 29.99 in SSW 4.1 mph 11.5 mph 94 % 0.06 in
11:15 57.2 °F 55.5 °F 29.99 in SSE 3.5 mph 9.2 mph 94 % 0.07 in
11:20 57.2 °F 55.5 °F 29.99 in South 3.4 mph 8.1 mph 94 % 0.07 in
11:25 57.2 °F 55.5 °F 29.99 in South 1.8 mph 6.9 mph 94 % 0.07 in
11:30 57.2 °F 55.5 °F 29.99 in SSW 2.6 mph 6.9 mph 94 % 0.07 in
11:35 57.2 °F 55.8 °F 29.98 in SSW 4.6 mph 6.9 mph 95 % 0.08 in
11:40 57.2 °F 55.8 °F 29.98 in South 4.8 mph 6.9 mph 95 % 0.09 in
11:46 57.2 °F 55.8 °F 29.97 in SSW 7.7 mph 9.2 mph 95 % 0.09 in
11:51 57.2 °F 55.8 °F 29.97 in SSE 5.8 mph 11.5 mph 95 % 0.11 in
11:56 57.2 °F 55.8 °F 29.97 in South 2.4 mph 8.1 mph 95 % 0.11 in
12:01 57.2 °F 55.8 °F 29.96 in SSW 5.0 mph 8.1 mph 95 % 0.12 in
12:06 57.2 °F 55.8 °F 29.95 in SSE 2.6 mph 8.1 mph 95 % 0.12 in
12:11 57.2 °F 55.8 °F 29.95 in SSW 4.1 mph 9.2 mph 95 % 0.14 in
12:16 57.2 °F 55.8 °F 29.95 in SSE 8.4 mph 18.4 mph 95 % 0.15 in
12:21 57.2 °F 55.8 °F 29.94 in SSE 4.6 mph 9.2 mph 95 % 0.16 in
12:26 57.2 °F 55.8 °F 29.93 in SSE 10.5 mph 18.4 mph 95 % 0.17 in
12:31 57.3 °F 56.2 °F 29.93 in SSW 9.1 mph 20.7 mph 96 % 0.18 in
12:37 57.3 °F 56.2 °F 29.92 in South 8.6 mph 18.4 mph 96 % 0.18 in
12:42 57.4 °F 56.3 °F 29.91 in South 8.0 mph 13.8 mph 96 % 0.18 in
12:47 57.5 °F 56.1 °F 29.91 in SSE 6.9 mph 13.8 mph 95 % 0.17 in
12:52 57.5 °F 56.1 °F 29.91 in SE 3.8 mph 12.0 mph 95 % 0.17 in
13:02 57.7 °F 56.6 °F 29.90 in South 7.8 mph 13.8 mph 96 % 0.16 in
13:07 57.8 °F 56.7 °F 29.89 in SSE 5.2 mph 11.5 mph 96 % 0.15 in
13:17 57.8 °F 56.7 °F 29.89 in SSE 11.5 mph 19.6 mph 96 % 0.14 in
13:22 57.9 °F 56.8 °F 29.88 in SSE 6.9 mph 9.0 mph 96 % 0.15 in
13:28 57.9 °F 56.8 °F 29.88 in SSE 6.7 mph 13.8 mph 96 % 0.16 in
13:33 57.8 °F 56.7 °F 29.88 in SSW 3.9 mph 11.5 mph 96 % 0.17 in
13:38 57.8 °F 56.7 °F 29.86 in SE 8.6 mph 11.5 mph 96 % 0.18 in
13:43 57.9 °F 56.8 °F 29.86 in South 3.3 mph 12.7 mph 96 % 0.20 in
13:48 57.9 °F 56.8 °F 29.86 in South 8.0 mph 16.1 mph 96 % 0.22 in
13:53 58.0 °F 56.9 °F 29.86 in SSE 5.7 mph 12.7 mph 96 % 0.24 in
13:58 58.1 °F 57.0 °F 29.85 in SE 8.2 mph 15.0 mph 96 % 0.26 in
14:03 58.1 °F 57.0 °F 29.85 in SSW 8.0 mph 13.8 mph 96 % 0.27 in
14:08 58.1 °F 57.0 °F 29.85 in South 6.3 mph 11.5 mph 96 % 0.29 in
14:13 58.1 °F 57.0 °F 29.85 in South 8.8 mph 13.8 mph 96 % 0.32 in
14:19 58.1 °F 57.0 °F 29.85 in SSE 8.0 mph 15.0 mph 96 % 0.33 in
14:24 58.1 °F 57.0 °F 29.84 in SE 5.6 mph 21.9 mph 96 % 0.32 in
14:29 58.2 °F 57.1 °F 29.84 in SSE 7.9 mph 15.0 mph 96 % 0.32 in
14:34 58.4 °F 57.3 °F 29.84 in South 5.8 mph 10.4 mph 96 % 0.31 in
14:39 58.5 °F 57.4 °F 29.83 in South 6.9 mph 13.8 mph 96 % 0.31 in
14:44 58.6 °F 57.5 °F 29.84 in SE 7.7 mph 15.0 mph 96 % 0.29 in
14:49 58.7 °F 57.6 °F 29.83 in South 6.4 mph 9.2 mph 96 % 0.27 in
14:54 58.8 °F 57.7 °F 29.82 in SE 7.0 mph 16.1 mph 96 % 0.27 in
14:59 58.8 °F 57.7 °F 29.82 in SSW 6.7 mph 11.5 mph 96 % 0.26 in
15:05 58.8 °F 57.7 °F 29.83 in SSW 6.8 mph 16.1 mph 96 % 0.25 in
15:10 58.8 °F 57.7 °F 29.82 in SSW 6.9 mph 12.7 mph 96 % 0.24 in
15:15 58.8 °F 57.7 °F 29.83 in SSE 10.4 mph 17.3 mph 96 % 0.23 in
15:20 58.9 °F 57.8 °F 29.83 in South 7.0 mph 22.0 mph 96 % 0.01 in
15:25 59.0 °F 57.9 °F 29.83 in South 7.0 mph 20.0 mph 96 % 0.01 in
15:30 59.1 °F 58.0 °F 29.82 in South 8.0 mph 17.0 mph 96 % 0.01 in
15:35 59.1 °F 58.0 °F 29.82 in South 7.0 mph 17.0 mph 96 % 0.00 in
15:40 59.2 °F 58.1 °F 29.82 in South 8.0 mph 18.0 mph 96 % 0.01 in
15:45 59.2 °F 58.1 °F 29.82 in South 8.0 mph 14.0 mph 96 % 0.00 in
15:50 59.2 °F 58.1 °F 29.81 in South 7.0 mph 14.0 mph 96 % 0.01 in
15:55 59.2 °F 58.1 °F 29.81 in South 8.0 mph 21.0 mph 96 % 0.01 in
16:00 59.2 °F 58.1 °F 29.81 in East 7.1 mph 17.3 mph 96 % 0.26 in
16:05 59.3 °F 58.4 °F 29.81 in SSW 5.5 mph 8.1 mph 97 % 0.26 in
16:10 59.3 °F 58.4 °F 29.81 in SSW 4.0 mph 11.5 mph 97 % 0.24 in
16:15 59.3 °F 58.4 °F 29.81 in SSW 7.9 mph 13.0 mph 97 % 0.24 in
16:20 59.3 °F 58.4 °F 29.80 in SSW 11.2 mph 18.4 mph 97 % 0.24 in
16:25 59.4 °F 58.5 °F 29.80 in South 5.0 mph 10.0 mph 97 % 0.23 in
16:30 59.4 °F 58.5 °F 29.80 in South 5.5 mph 10.4 mph 97 % 0.22 in
16:36 59.4 °F 58.5 °F 29.81 in SSW 7.5 mph 11.5 mph 97 % 0.20 in
16:41 59.5 °F 58.6 °F 29.81 in South 6.6 mph 15.0 mph 97 % 0.18 in
16:46 59.6 °F 58.7 °F 29.80 in SSW 15.1 mph 19.6 mph 97 % 0.17 in
16:51 59.7 °F 58.8 °F 29.81 in South 6.2 mph 15.0 mph 97 % 0.13 in
16:56 59.7 °F 58.6 °F 29.81 in West 4.9 mph 13.8 mph 96 % 0.10 in
17:01 59.7 °F 58.6 °F 29.82 in SW 7.7 mph 12.7 mph 96 % 0.08 in
17:06 59.7 °F 58.6 °F 29.83 in SSW 7.9 mph 13.8 mph 96 % 0.07 in
17:11 59.7 °F 58.6 °F 29.82 in West 9.4 mph 16.0 mph 96 % 0.06 in
17:16 59.7 °F 58.6 °F 29.82 in SSW 8.9 mph 15.0 mph 96 % 0.07 in
17:21 59.7 °F 58.6 °F 29.82 in SW 5.8 mph 13.0 mph 96 % 0.05 in
17:27 59.6 °F 58.5 °F 29.82 in SSE 5.3 mph 19.6 mph 96 % 0.05 in
17:32 59.6 °F 58.5 °F 29.82 in SSW 7.3 mph 8.0 mph 96 % 0.05 in
17:37 59.6 °F 58.5 °F 29.82 in SW 4.8 mph 12.7 mph 96 % 0.07 in
17:42 59.5 °F 58.4 °F 29.82 in WSW 7.1 mph 12.7 mph 96 % 0.11 in
17:47 59.4 °F 58.3 °F 29.81 in SSE 2.7 mph 10.4 mph 96 % 0.13 in
17:52 59.4 °F 58.3 °F 29.82 in SW 3.6 mph 8.0 mph 96 % 0.15 in
17:57 59.4 °F 58.3 °F 29.82 in SSW 1.5 mph 10.4 mph 96 % 0.15 in
18:02 59.4 °F 58.3 °F 29.82 in South 5.3 mph 6.9 mph 96 % 0.16 in
18:07 59.3 °F 58.2 °F 29.82 in SW 7.9 mph 11.5 mph 96 % 0.19 in
18:12 59.3 °F 58.4 °F 29.82 in SSW 8.1 mph 15.0 mph 97 % 0.21 in
18:18 59.3 °F 58.4 °F 29.81 in SSW 8.5 mph 17.3 mph 97 % 0.23 in
18:23 59.3 °F 58.4 °F 29.82 in SW 7.1 mph 12.7 mph 97 % 0.24 in
18:28 59.2 °F 58.1 °F 29.82 in SW 6.3 mph 10.4 mph 96 % 0.26 in
18:33 59.2 °F 58.1 °F 29.81 in SW 5.4 mph 11.5 mph 96 % 0.26 in
18:38 59.1 °F 58.0 °F 29.81 in SW 3.2 mph 12.7 mph 96 % 0.22 in
18:43 59.1 °F 58.0 °F 29.81 in SSW 2.2 mph 5.8 mph 96 % 0.19 in
18:48 59.1 °F 58.0 °F 29.81 in SW 4.6 mph 7.0 mph 96 % 0.17 in
18:53 59.0 °F 57.9 °F 29.81 in SSW 2.4 mph 6.9 mph 96 % 0.16 in
18:58 59.0 °F 57.9 °F 29.81 in SW 2.4 mph 5.8 mph 96 % 0.16 in
19:03 58.9 °F 57.8 °F 29.81 in SW 4.2 mph 6.0 mph 96 % 0.13 in
19:08 58.9 °F 57.8 °F 29.81 in SSW 2.8 mph 6.9 mph 96 % 0.09 in
19:13 58.9 °F 58.1 °F 29.81 in South 2.9 mph 6.0 mph 97 % 0.07 in
19:18 58.9 °F 58.1 °F 29.81 in SSW 2.5 mph 6.9 mph 97 % 0.04 in
19:24 58.9 °F 58.1 °F 29.81 in SSW 2.4 mph 4.6 mph 97 % 0.03 in
19:29 58.9 °F 58.1 °F 29.81 in South 4.9 mph 5.8 mph 97 % 0.01 in
19:34 58.9 °F 58.1 °F 29.81 in SSE 2.9 mph 8.1 mph 97 % 0.00 in
19:39 58.9 °F 58.1 °F 29.80 in SSW 4.1 mph 5.8 mph 97 % 0.00 in
19:44 58.9 °F 58.1 °F 29.81 in SW 5.3 mph 6.9 mph 97 % 0.00 in
19:49 58.9 °F 58.1 °F 29.81 in SW 1.8 mph 4.6 mph 97 % 0.00 in
19:54 58.9 °F 58.1 °F 29.81 in WSW 3.5 mph 6.0 mph 97 % 0.00 in
19:59 58.9 °F 58.1 °F 29.80 in SSW 2.6 mph 4.6 mph 97 % 0.00 in
20:04 58.9 °F 58.1 °F 29.80 in WSW 4.2 mph 10.4 mph 97 % 0.00 in
20:09 58.9 °F 58.1 °F 29.80 in SW 4.9 mph 6.9 mph 97 % 0.00 in
20:15 58.9 °F 58.1 °F 29.81 in SSW 3.9 mph 5.8 mph 97 % 0.00 in
20:20 58.9 °F 58.1 °F 29.81 in WSW 1.8 mph 3.5 mph 97 % 0.00 in
20:25 58.9 °F 58.0 °F 29.81 in SW 3.0 mph 6.0 mph 97 % 0.00 in
20:30 58.8 °F 58.0 °F 29.81 in SW 2.0 mph 7.0 mph 97 % 0.00 in
20:35 58.8 °F 58.0 °F 29.81 in SW 2.0 mph 7.0 mph 97 % 0.00 in
20:40 58.8 °F 58.0 °F 29.82 in SW 2.0 mph 5.0 mph 97 % 0.00 in
20:45 58.8 °F 58.0 °F 29.82 in SW 2.0 mph 7.0 mph 97 % 0.00 in
20:50 58.8 °F 57.9 °F 29.82 in SW 3.0 mph 7.0 mph 97 % 0.00 in
20:55 58.8 °F 58.0 °F 29.82 in SW 3.0 mph 8.0 mph 97 % 0.00 in
21:00 58.8 °F 58.0 °F 29.81 in WSW 3.6 mph 6.9 mph 97 % 0.02 in
21:05 58.9 °F 58.0 °F 29.82 in SW 5.0 mph 12.0 mph 97 % 0.00 in
21:10 59.0 °F 58.2 °F 29.81 in SSW 5.0 mph 9.0 mph 97 % 0.00 in
21:15 59.1 °F 58.2 °F 29.80 in SSW 6.9 mph 10.4 mph 97 % 0.02 in
21:20 59.2 °F 58.3 °F 29.81 in SW 5.0 mph 9.0 mph 97 % 0.00 in
21:25 59.3 °F 58.4 °F 29.80 in SW 5.0 mph 9.0 mph 97 % 0.00 in
21:30 59.3 °F 58.4 °F 29.81 in SW 6.0 mph 10.0 mph 97 % 0.00 in
21:35 59.3 °F 58.4 °F 29.81 in SSW 6.0 mph 7.0 mph 97 % 0.01 in
21:40 59.2 °F 58.3 °F 29.81 in SSW 3.0 mph 8.0 mph 97 % 0.00 in
21:45 59.2 °F 58.3 °F 29.82 in SW 5.0 mph 9.0 mph 97 % 0.00 in
21:50 59.2 °F 58.3 °F 29.82 in SW 3.0 mph 12.0 mph 97 % 0.00 in
21:55 59.3 °F 58.4 °F 29.82 in SW 5.0 mph 12.0 mph 97 % 0.00 in
22:00 59.3 °F 58.4 °F 29.83 in SW 6.2 mph 6.2 mph 97 % 0.01 in
22:05 59.4 °F 58.5 °F 29.83 in SW 5.0 mph 9.0 mph 97 % 0.00 in
22:10 59.4 °F 58.6 °F 29.83 in SW 7.0 mph 12.0 mph 97 % 0.00 in
22:15 59.5 °F 58.6 °F 29.83 in SW 6.0 mph 10.0 mph 97 % 0.00 in
22:20 59.5 °F 58.6 °F 29.84 in SSW 3.1 mph 9.2 mph 97 % 0.01 in
22:25 59.5 °F 58.7 °F 29.84 in WSW 3.0 mph 8.0 mph 97 % 0.00 in
22:30 59.6 °F 58.7 °F 29.84 in WSW 6.0 mph 10.0 mph 97 % 0.00 in
22:35 59.6 °F 58.7 °F 29.84 in WSW 5.0 mph 12.0 mph 97 % 0.00 in
22:40 59.5 °F 58.6 °F 29.85 in WSW 2.0 mph 6.0 mph 97 % 0.00 in
22:45 59.5 °F 58.6 °F 29.85 in WSW 2.0 mph 7.0 mph 97 % 0.00 in
22:50 59.4 °F 58.5 °F 29.85 in WSW 1.6 mph 2.3 mph 97 % 0.00 in
22:55 59.3 °F 58.4 °F 29.85 in WSW 2.0 mph 8.0 mph 97 % 0.00 in
23:00 59.2 °F 58.3 °F 29.85 in West 1.1 mph 3.5 mph 97 % 0.00 in
23:05 59.1 °F 58.2 °F 29.86 in WSW 3.0 mph 8.0 mph 97 % 0.00 in
23:10 59.0 °F 58.2 °F 29.85 in WSW 2.0 mph 6.0 mph 97 % 0.00 in
23:15 58.9 °F 58.1 °F 29.85 in WSW 3.0 mph 8.0 mph 97 % 0.00 in
23:20 58.8 °F 58.0 °F 29.85 in SW 3.0 mph 6.0 mph 97 % 0.00 in
23:25 58.7 °F 57.9 °F 29.85 in SW 2.0 mph 5.0 mph 97 % 0.00 in
23:30 58.7 °F 57.8 °F 29.85 in SW 3.0 mph 8.0 mph 97 % 0.00 in
23:35 58.6 °F 57.8 °F 29.85 in WSW 2.0 mph 4.0 mph 97 % 0.00 in
23:40 58.5 °F 57.7 °F 29.85 in Calm   3.0 mph 97 % 0.00 in
23:45 58.4 °F 57.6 °F 29.85 in WSW 5.0 mph 7.0 mph 97 % 0.00 in
23:50 58.3 °F 57.5 °F 29.85 in SW 3.0 mph 3.5 mph 97 % 0.00 in
23:55 58.2 °F 57.4 °F 29.85 in SW 2.0 mph 6.0 mph 97 % 0.00 in
Crab Meadow Weather
Compliments of Weather Underground - 3 mb

Script developed by  Jim McMurry - jmcmurry@mwt.net Adapted for the template by  Wim van der Kuil - Leuven-Template.eu

Extremes: The highest temperature ever recorded in the United States was 134 degrees F at Greenland Ranch in Death Valley, California.